| time (UTC) | temp C | wind direction | speed KPH | gust KPH | rain 1hr cm | rain 24hr cm | rain mn cm | humidity % | barometer mb |
| 20260506014522 | 26 | 40 | 0.0 | 0.0 | 0.00 | 0.00 | 0.00 | 76 | 1003.2 |
| 20260506013022 | 26 | 32 | 0.0 | 0.0 | 0.00 | 0.00 | 0.00 | 75 | 1003.1 |
| 20260506011546 | 27 | 337 | 0.0 | 1.6 | 0.00 | 0.00 | 0.00 | 74 | 1003.0 |
| 20260506010020 | 27 | 177 | 0.0 | 0.0 | 0.00 | 0.00 | 0.00 | 74 | 1003.0 |
| 20260506004519 | 27 | 175 | 0.0 | 0.0 | 0.00 | 0.00 | 0.00 | 73 | 1003.0 |
| 20260506003019 | 27 | 257 | 0.0 | 1.6 | 0.00 | 0.00 | 0.00 | 72 | 1002.9 |
| 20260506001518 | 28 | 148 | 0.0 | 0.0 | 0.00 | 0.00 | 0.00 | 71 | 1003.1 |
| 20260506000030 | 28 | 148 | 0.0 | 1.6 | 0.00 | 0.00 | 0.00 | 71 | 1003.0 |
| 20260505234534 | 28 | 213 | 0.0 | 1.6 | 0.00 | 0.00 | 0.00 | 70 | 1002.8 |
| 20260505233016 | 28 | 360 | 0.0 | 3.2 | 0.00 | 0.00 | 0.00 | 69 | 1002.6 |
| 20260505231516 | 28 | 232 | 0.0 | 3.2 | 0.00 | 0.00 | 0.00 | 68 | 1002.4 |
| 20260505230028 | 29 | 236 | 1.6 | 11.3 | 0.00 | 0.00 | 0.00 | 67 | 1002.4 |
| 20260505224523 | 29 | 308 | 0.0 | 3.2 | 0.00 | 0.00 | 0.00 | 66 | 1002.3 |
| 20260505223016 | 30 | 194 | 0.0 | 3.2 | 0.00 | 0.00 | 0.00 | 65 | 1002.3 |
| 20260505221512 | 30 | 192 | 0.0 | 4.8 | 0.00 | 0.00 | 0.00 | 66 | 1002.2 |
| 20260505220011 | 30 | 153 | 0.0 | 6.4 | 0.00 | 0.00 | 0.00 | 65 | 1002.5 |
| 20260505214514 | 30 | 184 | 1.6 | 8.0 | 0.00 | 0.00 | 0.00 | 64 | 1002.8 |
| 20260505213007 | 30 | 103 | 0.0 | 4.8 | 0.00 | 0.00 | 0.00 | 65 | 1002.8 |
| 20260505211504 | 30 | 233 | 0.0 | 9.7 | 0.00 | 0.00 | 0.00 | 65 | 1003.3 |
| 20260505210003 | 30 | 196 | 0.0 | 6.4 | 0.00 | 0.00 | 0.00 | 65 | 1003.2 |
| 20260505204501 | 30 | 155 | 0.0 | 3.2 | 0.00 | 0.00 | 0.00 | 68 | 1003.4 |
| 20260505203110 | 30 | 208 | 0.0 | 6.4 | 0.00 | 0.00 | 0.00 | 67 | 1003.5 |
| 20260505201556 | 30 | 109 | 0.0 | 6.4 | 0.00 | 0.00 | 0.00 | 67 | 1003.8 |
| 20260505200054 | 29 | 116 | 1.6 | 4.8 | 0.00 | 0.00 | 0.00 | 68 | 1004.1 |
| 20260505194606 | 29 | 234 | 1.6 | 11.3 | 0.00 | 0.00 | 0.00 | 69 | 1004.2 |
| 20260505193048 | 28 | 18 | 0.0 | 3.2 | 0.00 | 0.00 | 0.00 | 71 | 1004.5 |
| 20260505191555 | 28 | 201 | 0.0 | 4.8 | 0.00 | 0.00 | 0.00 | 73 | 1004.6 |
| 20260505190043 | 27 | 263 | 0.0 | 4.8 | 0.00 | 0.00 | 0.00 | 73 | 1004.8 |
| 20260505184539 | 26 | 237 | 1.6 | 6.4 | 0.00 | 0.00 | 0.00 | 75 | 1005.0 |
| 20260505183035 | 26 | 217 | 0.0 | 6.4 | 0.00 | 0.00 | 0.00 | 78 | 1005.2 |
| 20260505181536 | 25 | 252 | 0.0 | 8.0 | 0.00 | 0.00 | 0.00 | 78 | 1005.3 |
| 20260505180038 | 25 | 248 | 0.0 | 6.4 | 0.00 | 0.00 | 0.00 | 79 | 1005.6 |
| 20260505174526 | 25 | 269 | 1.6 | 8.0 | 0.00 | 0.00 | 0.00 | 80 | 1005.8 |
| 20260505173025 | 24 | 252 | 0.0 | 12.9 | 0.00 | 0.00 | 0.00 | 82 | 1005.8 |
| 20260505171517 | 23 | 236 | 1.6 | 8.0 | 0.00 | 0.00 | 0.00 | 83 | 1005.8 |
| 20260505170017 | 23 | 212 | 1.6 | 11.3 | 0.00 | 0.00 | 0.00 | 84 | 1005.9 |
| 20260505164510 | 23 | 282 | 0.0 | 6.4 | 0.00 | 0.00 | 0.00 | 85 | 1006.0 |
| 20260505163010 | 22 | 198 | 1.6 | 11.3 | 0.00 | 0.00 | 0.00 | 85 | 1006.0 |
| 20260505161505 | 22 | 298 | 0.0 | 6.4 | 0.00 | 0.00 | 0.00 | 86 | 1005.9 |
| 20260505153108 | 22 | 257 | 0.0 | 8.0 | 0.00 | 0.00 | 0.00 | 86 | 1006.0 |
| 20260505151559 | 22 | 322 | 0.0 | 11.3 | 0.00 | 0.00 | 0.00 | 87 | 1005.9 |
| 20260505150120 | 22 | 159 | 0.0 | 6.4 | 0.00 | 0.00 | 0.00 | 87 | 1005.9 |
| 20260505124551 | 21 | 300 | 0.0 | 4.8 | 0.00 | 0.00 | 0.00 | 87 | 1004.8 |
| 20260505123050 | 21 | 101 | 0.0 | 6.4 | 0.00 | 0.00 | 0.00 | 87 | 1004.5 |
| 20260505121611 | 21 | 248 | 0.0 | 3.2 | 0.00 | 0.00 | 0.00 | 86 | 1004.3 |
| 20260505120038 | 21 | 287 | 0.0 | 6.4 | 0.00 | 0.00 | 0.00 | 86 | 1004.1 |
| 20260505114541 | 21 | 360 | 0.0 | 12.9 | 0.00 | 0.00 | 0.00 | 86 | 1004.0 |
| 20260505113038 | 21 | 91 | 1.6 | 8.0 | 0.00 | 0.00 | 0.00 | 86 | 1004.2 |
| 20260505111540 | 21 | 46 | 1.6 | 14.5 | 0.00 | 0.00 | 0.00 | 86 | 1004.0 |
| 20260505101539 | 21 | 13 | 0.0 | 4.8 | 0.00 | 0.00 | 0.00 | 85 | 1004.4 |
| 20260505100038 | 21 | 250 | 0.0 | 3.2 | 0.00 | 0.00 | 0.00 | 85 | 1004.5 |
| 20260505094529 | 21 | 193 | 0.0 | 4.8 | 0.00 | 0.00 | 0.00 | 85 | 1004.4 |
| 20260505093031 | 21 | 279 | 0.0 | 4.8 | 0.00 | 0.00 | 0.00 | 85 | 1004.7 |
| 20260505091534 | 21 | 268 | 0.0 | 8.0 | 0.00 | 0.00 | 0.00 | 85 | 1004.6 |
| 20260505090026 | 21 | 172 | 0.0 | 14.5 | 0.00 | 0.00 | 0.00 | 85 | 1004.8 |
| 20260505084526 | 21 | 175 | 0.0 | 11.3 | 0.00 | 0.00 | 0.00 | 85 | 1004.8 |
| 20260505083033 | 21 | 170 | 0.0 | 8.0 | 0.00 | 0.00 | 0.00 | 84 | 1004.9 |
| 20260505081625 | 21 | 274 | 3.2 | 14.5 | 0.00 | 0.00 | 0.00 | 84 | 1005.0 |
| 20260505080027 | 21 | 217 | 0.0 | 8.0 | 0.00 | 0.00 | 0.00 | 84 | 1005.0 |
| 20260505074519 | 21 | 296 | 0.0 | 9.7 | 0.00 | 0.00 | 0.00 | 83 | 1005.4 |
| 20260505073019 | 21 | 25 | 0.0 | 6.4 | 0.00 | 0.00 | 0.00 | 83 | 1005.5 |
| 20260505071522 | 21 | 355 | 0.0 | 12.9 | 0.00 | 0.00 | 0.00 | 83 | 1005.8 |
| 20260505070014 | 21 | 213 | 0.0 | 9.7 | 0.00 | 0.00 | 0.00 | 83 | 1005.9 |
| 20260505064512 | 21 | 332 | 0.0 | 8.0 | 0.00 | 0.00 | 0.00 | 82 | 1006.1 |
| 20260505063015 | 21 | 234 | 1.6 | 8.0 | 0.00 | 0.00 | 0.00 | 82 | 1006.2 |
| 20260505061511 | 21 | 184 | 0.0 | 6.4 | 0.00 | 0.00 | 0.00 | 82 | 1006.4 |
| 20260505060008 | 21 | 311 | 0.0 | 3.2 | 0.00 | 0.00 | 0.00 | 82 | 1006.4 |
| 20260505054508 | 21 | 134 | 0.0 | 4.8 | 0.00 | 0.00 | 0.00 | 81 | 1006.5 |
| 20260505053006 | 22 | 61 | 0.0 | 3.2 | 0.00 | 0.00 | 0.00 | 81 | 1006.3 |
| 20260505051505 | 22 | 188 | 1.6 | 4.8 | 0.00 | 0.00 | 0.00 | 81 | 1006.4 |
| 20260505041611 | 22 | 247 | 0.0 | 6.4 | 0.00 | 0.00 | 0.00 | 79 | 1006.3 |
| 20260505040105 | 22 | 155 | 0.0 | 8.0 | 0.00 | 0.00 | 0.00 | 78 | 1006.4 |
| 20260505034600 | 22 | 204 | 0.0 | 3.2 | 0.00 | 0.00 | 0.00 | 77 | 1006.5 |
| 20260505033059 | 23 | 142 | 0.0 | 8.0 | 0.00 | 0.00 | 0.00 | 76 | 1006.3 |
| 20260505031605 | 23 | 296 | 0.0 | 0.0 | 0.00 | 0.00 | 0.00 | 75 | 1006.2 |
| 20260505030107 | 23 | 151 | 0.0 | 3.2 | 0.00 | 0.00 | 0.00 | 75 | 1006.4 |
| 20260505024612 | 23 | 316 | 0.0 | 6.4 | 0.00 | 0.00 | 0.00 | 74 | 1006.3 |
| 20260505023104 | 23 | 271 | 0.0 | 3.2 | 0.00 | 0.00 | 0.00 | 73 | 1006.2 |
| 20260505021559 | 24 | 230 | 0.0 | 3.2 | 0.00 | 0.00 | 0.00 | 71 | 1006.2 |
| 20260505020156 | 24 | 261 | 0.0 | 3.2 | 0.00 | 0.00 | 0.00 | 70 | 1006.0 |